When you browse on this site, cookies collect data to enhance your experience and personalize the content and advertising you see.
Visit our Privacy Policy to learn more. By continuing to use the site, you agree to this use of cookies and data.
  • în România
  • Lista ţărilor
  • Pe 7 zile
  • Temperatura apei
  • Hartă satelitară
  • Meteo pe hartă
  • Widget-uri
  • user-avatar
    Intrare

    Meteo pe oră la Invercargill

    Astăzi, 16 Iulie, Marţi

    Timp Temperatura Precipitaţii Vânt Presiune Umiditate
    00:00 +6°C° 0.1 mm 1 m/s 739 mmHg 95%
    01:00 +6°C° 0.1 mm 1 m/s 739 mmHg 95%
    02:00 +5°C° 0.1 mm 1 m/s 738 mmHg 95%
    03:00 +6°C° 0 mm 1 m/s 738 mmHg 95%
    04:00 +6°C° 0 mm 1 m/s 738 mmHg 95%
    05:00 +4°C° 0 mm 0 m/s 737 mmHg 97%
    06:00 +5°C° 0.1 mm 1 m/s 737 mmHg 96%
    07:00 +5°C° 0.1 mm 1 m/s 737 mmHg 96%
    08:00 +4°C° 0.1 mm 2 m/s 737 mmHg 96%
    09:00 +5°C° 0.1 mm 2 m/s 737 mmHg 93%
    10:00 +6°C° 0.1 mm 2 m/s 737 mmHg 91%
    11:00 +7°C° 0 mm 2 m/s 737 mmHg 87%
    12:00 +7°C° 0.1 mm 2 m/s 737 mmHg 87%
    13:00 +7°C° 0.1 mm 2 m/s 736 mmHg 86%
    14:00 +7°C° 0.1 mm 2 m/s 736 mmHg 86%
    15:00 +6°C° 0 mm 2 m/s 736 mmHg 84%
    16:00 +6°C° 0 mm 2 m/s 737 mmHg 83%
    17:00 +6°C° 0 mm 2 m/s 737 mmHg 81%
    18:00 +5°C° 0.1 mm 2 m/s 738 mmHg 83%
    19:00 +5°C° 0.1 mm 2 m/s 738 mmHg 85%
    20:00 +5°C° 0.1 mm 2 m/s 738 mmHg 87%
    21:00 +4°C° 0.4 mm 2 m/s 738 mmHg 89%
    22:00 +5°C° 0.4 mm 1 m/s 738 mmHg 90%
    23:00 +5°C° 0 mm 1 m/s 738 mmHg 92%

    Mâine, 17 Iulie, Miercuri

    Timp Temperatura Precipitaţii Vânt Presiune Umiditate
    00:00 +4°C° 0 mm 1 m/s 738 mmHg 92%
    01:00 +4°C° 0 mm 1 m/s 738 mmHg 93%
    02:00 +2°C° 0 mm 2 m/s 738 mmHg 94%
    03:00 +3°C° 0 mm 1 m/s 738 mmHg 94%
    04:00 +3°C° 0 mm 1 m/s 738 mmHg 94%
    05:00 +3°C° 0 mm 1 m/s 738 mmHg 94%
    06:00 +3°C° 0 mm 1 m/s 739 mmHg 94%
    07:00 +2°C° 0 mm 2 m/s 739 mmHg 94%
    08:00 +3°C° 0 mm 2 m/s 740 mmHg 93%
    09:00 +4°C° 0.1 mm 2 m/s 740 mmHg 91%
    10:00 +4°C° 0.1 mm 3 m/s 741 mmHg 89%
    11:00 +4°C° 0.1 mm 3 m/s 741 mmHg 87%
    12:00 +5°C° 0.1 mm 4 m/s 741 mmHg 83%
    13:00 +6°C° 0.1 mm 4 m/s 741 mmHg 79%
    14:00 +6°C° 0.1 mm 4 m/s 741 mmHg 75%
    15:00 +6°C° 0.1 mm 5 m/s 742 mmHg 79%
    16:00 +5°C° 0.1 mm 5 m/s 742 mmHg 83%
    17:00 +3°C° 0.1 mm 5 m/s 742 mmHg 87%
    18:00 +3°C° 0.2 mm 5 m/s 743 mmHg 86%
    19:00 +3°C° 0.2 mm 5 m/s 743 mmHg 85%
    20:00 +3°C° 0.2 mm 6 m/s 743 mmHg 84%
    21:00 +3°C° 0.1 mm 5 m/s 744 mmHg 85%
    22:00 +3°C° 0.1 mm 5 m/s 744 mmHg 86%
    23:00 +3°C° 0.1 mm 5 m/s 744 mmHg 86%

    Poimâine, 18 Iulie, Joi

    Timp Temperatura Precipitaţii Vânt Presiune Umiditate
    00:00 +2°C° 0.1 mm 5 m/s 744 mmHg 87%
    01:00 +2°C° 0.1 mm 5 m/s 744 mmHg 87%
    02:00 +1°C° 0.1 mm 4 m/s 745 mmHg 88%
    03:00 +1°C° 0 mm 4 m/s 745 mmHg 89%
    04:00 +2°C° 0 mm 3 m/s 745 mmHg 89%
    05:00 +3°C° 0 mm 2 m/s 745 mmHg 90%
    06:00 +2°C° 0 mm 3 m/s 745 mmHg 90%
    07:00 +2°C° 0 mm 3 m/s 745 mmHg 90%
    08:00 +3°C° 0 mm 3 m/s 745 mmHg 90%
    09:00 +4°C° 0.1 mm 3 m/s 745 mmHg 88%
    10:00 +5°C° 0.1 mm 3 m/s 745 mmHg 85%
    11:00 +6°C° 0.1 mm 4 m/s 746 mmHg 83%
    12:00 +7°C° 0 mm 3 m/s 745 mmHg 82%
    13:00 +8°C° 0 mm 3 m/s 745 mmHg 80%
    14:00 +8°C° 0 mm 3 m/s 745 mmHg 78%
    15:00 +8°C° 0.3 mm 3 m/s 745 mmHg 82%
    16:00 +7°C° 0.3 mm 3 m/s 745 mmHg 86%
    17:00 +5°C° 0.3 mm 3 m/s 746 mmHg 91%
    18:00 +6°C° 0.1 mm 2 m/s 746 mmHg 90%
    19:00 +5°C° 0.1 mm 2 m/s 746 mmHg 90%
    20:00 +5°C° 0.1 mm 2 m/s 746 mmHg 90%
    21:00 +5°C° 0 mm 2 m/s 747 mmHg 90%
    22:00 +5°C° 0 mm 2 m/s 747 mmHg 91%
    23:00 +6°C° 0 mm 1 m/s 747 mmHg 91%

    19 Iulie, Vineri

    Timp Temperatura Precipitaţii Vânt Presiune Umiditate
    00:00 +5°C° 0 mm 1 m/s 747 mmHg 92%
    01:00 +5°C° 0 mm 1 m/s 747 mmHg 92%
    02:00 +5°C° 0 mm 1 m/s 747 mmHg 93%
    03:00 +5°C° 0 mm 1 m/s 747 mmHg 93%
    04:00 +4°C° 0 mm 1 m/s 747 mmHg 92%
    05:00 +4°C° 0 mm 1 m/s 747 mmHg 92%
    06:00 +4°C° 0 mm 1 m/s 747 mmHg 92%
    07:00 +4°C° 0 mm 1 m/s 747 mmHg 92%
    08:00 +4°C° 0 mm 1 m/s 748 mmHg 92%
    09:00 +6°C° 0 mm 1 m/s 748 mmHg 89%
    10:00 +6°C° 0 mm 0 m/s 748 mmHg 86%
    11:00 +7°C° 0 mm 0 m/s 748 mmHg 82%
    12:00 +8°C° 0 mm 0 m/s 748 mmHg 82%
    13:00 +8°C° 0 mm 0 m/s 747 mmHg 82%
    14:00 +9°C° 0 mm 1 m/s 747 mmHg 82%
    15:00 +9°C° 0 mm 1 m/s 748 mmHg 86%
    16:00 +8°C° 0 mm 1 m/s 748 mmHg 89%
    17:00 +7°C° 0 mm 1 m/s 748 mmHg 93%
    18:00 +8°C° 0 mm 1 m/s 748 mmHg 93%
    19:00 +8°C° 0 mm 1 m/s 749 mmHg 93%
    20:00 +7°C° 0 mm 2 m/s 749 mmHg 93%
    21:00 +7°C° 0.2 mm 2 m/s 749 mmHg 93%
    22:00 +7°C° 0.2 mm 2 m/s 750 mmHg 93%
    23:00 +7°C° 0.2 mm 2 m/s 750 mmHg 93%

    20 Iulie, Sâmbătă

    Timp Temperatura Precipitaţii Vânt Presiune Umiditate
    00:00 +8°C° 0.4 mm 3 m/s 750 mmHg 93%
    01:00 +8°C° 0.4 mm 3 m/s 750 mmHg 93%
    02:00 +7°C° 0.4 mm 4 m/s 751 mmHg 93%
    03:00 +7°C° 0.8 mm 4 m/s 751 mmHg 93%
    04:00 +7°C° 0.8 mm 5 m/s 751 mmHg 93%
    05:00 +7°C° 0.8 mm 6 m/s 751 mmHg 93%
    06:00 +7°C° 0.6 mm 6 m/s 752 mmHg 93%
    07:00 +7°C° 0.6 mm 6 m/s 752 mmHg 93%
    08:00 +7°C° 0.6 mm 6 m/s 752 mmHg 94%
    09:00 +7°C° 0.9 mm 6 m/s 752 mmHg 94%
    10:00 +7°C° 0.9 mm 6 m/s 753 mmHg 94%
    11:00 +7°C° 0.9 mm 6 m/s 753 mmHg 95%
    12:00 +7°C° 1.5 mm 6 m/s 753 mmHg 95%
    13:00 +7°C° 1.5 mm 6 m/s 753 mmHg 95%
    14:00 +7°C° 1.5 mm 6 m/s 753 mmHg 95%
    15:00 +8°C° 1.7 mm 6 m/s 753 mmHg 95%
    16:00 +8°C° 1.7 mm 7 m/s 754 mmHg 95%
    17:00 +8°C° 1.7 mm 7 m/s 754 mmHg 95%
    18:00 +8°C° 0.7 mm 6 m/s 755 mmHg 95%
    19:00 +8°C° 0.7 mm 6 m/s 755 mmHg 95%
    20:00 +8°C° 0.7 mm 6 m/s 756 mmHg 95%
    21:00 +8°C° 0.2 mm 5 m/s 756 mmHg 95%
    22:00 +8°C° 0.2 mm 5 m/s 756 mmHg 95%
    23:00 +8°C° 0.2 mm 5 m/s 756 mmHg 95%

    21 Iulie, Duminică

    Timp Temperatura Precipitaţii Vânt Presiune Umiditate
    00:00 +8°C° 0.1 mm 5 m/s 756 mmHg 95%
    01:00 +8°C° 0.1 mm 5 m/s 757 mmHg 95%
    02:00 +8°C° 0.1 mm 5 m/s 757 mmHg 95%
    03:00 +8°C° 0.4 mm 5 m/s 757 mmHg 95%
    04:00 +8°C° 0.4 mm 5 m/s 757 mmHg 96%
    05:00 +8°C° 0.4 mm 5 m/s 757 mmHg 97%
    06:00 +8°C° 0.1 mm 4 m/s 757 mmHg 96%
    07:00 +9°C° 0.1 mm 3 m/s 758 mmHg 96%
    08:00 +9°C° 0.1 mm 2 m/s 758 mmHg 96%
    09:00 +9°C° 0 mm 2 m/s 758 mmHg 94%
    10:00 +10°C° 0 mm 2 m/s 758 mmHg 92%
    11:00 +10°C° 0 mm 2 m/s 758 mmHg 90%
    12:00 +12°C° 0 mm 2 m/s 758 mmHg 88%
    13:00 +12°C° 0 mm 2 m/s 757 mmHg 87%
    14:00 +12°C° 0 mm 2 m/s 757 mmHg 85%
    15:00 +10°C° 0 mm 2 m/s 757 mmHg 89%
    16:00 +9°C° 0 mm 2 m/s 757 mmHg 92%
    17:00 +8°C° 0 mm 2 m/s 758 mmHg 96%
    18:00 +7°C° 0 mm 2 m/s 758 mmHg 96%
    19:00 +7°C° 0 mm 2 m/s 758 mmHg 96%
    20:00 +7°C° 0 mm 2 m/s 758 mmHg 96%
    21:00 +6°C° 0 mm 2 m/s 758 mmHg 96%
    22:00 +6°C° 0 mm 2 m/s 758 mmHg 96%
    23:00 +5°C° 0 mm 2 m/s 758 mmHg 96%
    Arată mai mult